Weather History for Mount Ida, AR

Change the Weather History Date:

Wednesday, January 2, 2013

  Actual Average (KHOT) Record (KHOT)
Temperature  
Mean Temperature 32 °F -  
Max Temperature 37 °F 47 °F 71 °F (2000)
Min Temperature 28 °F 28 °F 5 °F (1979)
Degree Days  
Heating Degree Days 32    
Moisture  
Dew Point 31 °F    
Average Humidity 92    
Maximum Humidity 100    
Minimum Humidity 79    
Precipitation  
Precipitation 0.00 in - - ()
Sea Level Pressure  
Sea Level Pressure 30.24 in    
Wind  
Wind Speed 1 mph (NW)    
Max Wind Speed 5 mph    
Max Gust Speed -    
Visibility 4 miles    
Events      
Averages and records for this station are not official NWS values.
T = Trace of Precipitation, MM = Missing Value Source: NWS Daily Summary

Daily Weather History Graph

Daily Weather History Graph

Search for Another Location

Airport:

Trip Planner

Search our weather history database for the weather conditions in past years. The results will help you decide how hot, cold, wet, or windy it might be!

Date:

Astronomy

Jan. 02, 2013 Rise Set
Actual Time 7:21 AM CST 5:15 PM CST
Civil Twilight 6:53 AM CST 5:43 PM CST
Nautical Twilight 6:22 AM CST 6:15 PM CST
Astronomical Twilight 5:51 AM CST 6:45 PM CST
Moon 10:34 PM CST (1/2) 10:17 AM CST (1/2)
Length of Visible Light 10h 50m
Length of Day
9h 54m
Waning Gibbous, 75% of the Moon is Illuminated
Jan 2
Waning Gibbous
Jan 4
Last Quarter
Jan 11
New
Jan 18
First Quarter
Jan 26
Full

Hourly Weather History & Observations

Time (CST) Temp. Windchill Dew Point Humidity Pressure Visibility Wind Dir Wind Speed Gust Speed Precip Events Conditions
12:24 AM 33.8 °F - 33.8 °F 100% 30.18 in 2.0 mi Calm Calm - N/A   Overcast
12:45 AM 33.8 °F 30.8 °F 33.8 °F 100% 30.18 in 1.8 mi NW 3.5 mph - N/A   Overcast
12:53 AM 34.0 °F - 34.0 °F 100% 30.21 in 1.8 mi Calm Calm - N/A   Overcast
1:01 AM 33.8 °F - 33.8 °F 100% 30.18 in 1.8 mi Calm Calm - N/A   Overcast
1:17 AM 33.8 °F 30.8 °F 33.8 °F 100% 30.19 in 2.0 mi WNW 3.5 mph - N/A   Overcast
1:53 AM 34.0 °F - 33.1 °F 96% 30.23 in 3.0 mi Calm Calm - N/A   Overcast
2:53 AM 34.0 °F 31.0 °F 33.1 °F 96% 30.25 in 3.0 mi NW 3.5 mph - N/A   Overcast
3:16 AM 33.8 °F 30.8 °F 33.8 °F 100% 30.22 in 2.5 mi Variable 3.5 mph - N/A   Overcast
3:53 AM 33.1 °F 28.7 °F 33.1 °F 100% 30.25 in 2.5 mi NNW 4.6 mph - N/A   Overcast
4:39 AM 33.8 °F - 32.0 °F 93% 30.22 in 3.0 mi Calm Calm - N/A   Overcast
4:53 AM 33.1 °F 30.0 °F 32.0 °F 96% 30.24 in 3.0 mi NNW 3.5 mph - N/A   Overcast
5:53 AM 33.1 °F 30.0 °F 30.9 °F 92% 30.25 in 4.0 mi NNW 3.5 mph - N/A   Overcast
6:53 AM 33.1 °F - 30.9 °F 92% 30.25 in 4.0 mi Calm Calm - N/A   Overcast
7:53 AM 33.1 °F - 30.9 °F 92% 30.26 in 3.0 mi Calm Calm - N/A   Overcast
8:53 AM 33.1 °F 28.7 °F 30.9 °F 92% 30.27 in 4.0 mi Variable 4.6 mph - N/A   Overcast
9:53 AM 33.1 °F 30.0 °F 32.0 °F 96% 30.29 in 4.0 mi North 3.5 mph - N/A   Overcast
10:53 AM 33.1 °F 30.0 °F 32.0 °F 96% 30.29 in 3.0 mi NW 3.5 mph - N/A   Overcast
11:53 AM 34.0 °F 31.0 °F 30.9 °F 89% 30.26 in 5.0 mi North 3.5 mph - N/A   Overcast
12:53 PM 35.1 °F - 30.9 °F 85% 30.24 in 5.0 mi Calm Calm - N/A   Overcast
1:01 PM 35.6 °F - 30.2 °F 81% 30.21 in 6.0 mi Calm Calm - N/A   Overcast
1:13 PM 35.6 °F - 30.2 °F 81% 30.20 in 6.0 mi Calm Calm - N/A   Haze
1:31 PM 35.6 °F - 30.2 °F 81% 30.20 in 6.0 mi Calm Calm - N/A   Haze
1:53 PM 36.0 °F 33.3 °F 30.9 °F 82% 30.22 in 7.0 mi West 3.5 mph - N/A   Overcast
2:09 PM 35.6 °F 32.8 °F 30.2 °F 81% 30.19 in 7.0 mi WNW 3.5 mph - N/A   Overcast
2:53 PM 37.0 °F - 32.0 °F 82% 30.22 in 6.0 mi Calm Calm - N/A   Haze
3:02 PM 37.4 °F - 32.0 °F 81% 30.19 in 7.0 mi Calm Calm - N/A   Overcast
3:53 PM 37.9 °F - 32.0 °F 79% 30.22 in 7.0 mi Calm Calm - N/A   Overcast
4:29 PM 37.4 °F - 32.0 °F 81% 30.20 in 7.0 mi Calm Calm - N/A   Scattered Clouds
4:53 PM 36.0 °F - 32.0 °F 86% 30.23 in 7.0 mi Calm Calm - N/A   Clear
5:53 PM 33.1 °F - 30.9 °F 92% 30.25 in 6.0 mi Calm Calm - N/A   Partly Cloudy
6:24 PM 32.0 °F - 30.2 °F 93% 30.21 in 5.0 mi Calm Calm - N/A   Mostly Cloudy
6:37 PM 32.0 °F - 30.2 °F 93% 30.21 in 4.0 mi Calm Calm - N/A   Scattered Clouds
6:53 PM 32.0 °F - 30.0 °F 92% 30.25 in 4.0 mi Calm Calm - N/A   Clear
7:29 PM 30.2 °F - 28.4 °F 93% 30.23 in 2.5 mi Calm Calm - N/A   Clear
7:44 PM 30.2 °F - 28.4 °F 93% 30.24 in 3.0 mi Calm Calm - N/A   Clear
7:53 PM 30.0 °F - 28.0 °F 92% 30.28 in 2.5 mi Calm Calm - N/A   Clear
8:40 PM 28.4 °F - 28.4 °F 100% 30.25 in 2.5 mi Calm Calm - N/A   Mostly Cloudy
8:53 PM 30.0 °F - 28.9 °F 96% 30.29 in 2.5 mi Calm Calm - N/A   Overcast
9:12 PM 30.2 °F - 28.4 °F 93% 30.25 in 3.0 mi Calm Calm - N/A   Overcast
9:53 PM 30.0 °F - 28.9 °F 96% 30.30 in 2.5 mi Calm Calm - N/A   Scattered Clouds
10:53 PM 28.9 °F - 27.0 °F 92% 30.30 in 2.5 mi Calm Calm - N/A   Clear
11:09 PM 28.4 °F - 26.6 °F 93% 30.26 in 3.0 mi Calm Calm - N/A   Clear
11:53 PM 28.0 °F - 26.1 °F 92% 30.30 in 4.0 mi Calm Calm - N/A   Clear